Rayong, Thailand

8:31 AM ICT on July 25, 2016 (GMT +0700)
U-Taphao International

Weather History for VTBU - April, 2013

Change the Weather History Date:

Monday, April 15, 2013

  Actual Average Record
Temperature  
Mean Temperature 81 °F -  
Max Temperature 84 °F 91 °F 96 °F (2004)
Min Temperature 78 °F 80 °F 74 °F (2015)
Cooling Degree Days 16    
Growing Degree Days 31 (Base 50)    
Moisture  
Dew Point 75 °F    
Average Humidity 77    
Maximum Humidity 89    
Minimum Humidity 70    
Precipitation  
Precipitation 0.00 in - - ()
Sea Level Pressure  
Sea Level Pressure 29.79 in    
Wind  
Wind Speed 4 mph ()    
Max Wind Speed 9 mph    
Max Gust Speed -    
Visibility 5.6 miles    
Events Rain , Thunderstorm    
Averages and records for this station are not official NWS values.
T = Trace of Precipitation, MM = Missing Value Source: Averaged Metar Reports

Daily Weather History Graph

Daily Weather History Graph

Search for Another Location

Airport or City:

Trip Planner

Search our weather history database for the weather conditions in past years. The results will help you decide how hot, cold, wet, or windy it might be!

Date:

Astronomy

Apr. 15, 2013 Rise Set
Actual Time 6:03 AM ICT 6:28 PM ICT
Civil Twilight 5:42 AM ICT 6:50 PM ICT
Nautical Twilight 5:17 AM ICT 7:15 PM ICT
Astronomical Twilight 4:51 AM ICT 7:40 PM ICT
Moon 9:32 AM ICT (4/15) 10:34 PM ICT (4/15)
Length of Visible Light 13h 07m
Length of Day
12h 24m
Waxing Crescent, 21% of the Moon is Illuminated
Apr 15
Waxing Crescent
Apr 18
First Quarter
Apr 26
Full
May 2
Last Quarter
May 10
New

Hourly Weather History & Observations

Time (ICT) Temp. Heat Index Dew Point Humidity Pressure Visibility Wind Dir Wind Speed Gust Speed Precip Events Conditions
12:00 AM 80.6 °F 85.4 °F 73.4 °F 79% 29.83 in 5.0 mi Calm Calm - N/A   Mostly Cloudy
12:30 AM 80.6 °F 86.2 °F 75.2 °F 84% 29.83 in 5.0 mi ENE 2.3 mph - N/A   Mostly Cloudy
1:00 AM 78.8 °F - 75.2 °F 89% 29.80 in 5.0 mi ENE 2.3 mph - N/A   Mostly Cloudy
1:30 AM 80.6 °F 85.4 °F 73.4 °F 79% 29.80 in 5.0 mi Calm Calm - N/A   Mostly Cloudy
2:00 AM 78.8 °F - 75.2 °F 89% 29.77 in 5.0 mi ESE 2.3 mph - N/A   Mostly Cloudy
2:30 AM 80.6 °F 85.4 °F 73.4 °F 79% 29.77 in 5.0 mi Calm Calm - N/A Thunderstorm Thunderstorm
3:00 AM 78.8 °F - 75.2 °F 89% 29.74 in 5.0 mi SSW 2.3 mph - N/A Thunderstorm Thunderstorm
4:00 AM 80.6 °F 85.4 °F 73.4 °F 79% 29.74 in 5.0 mi SW 2.3 mph - N/A   Mostly Cloudy
4:30 AM 80.6 °F 86.2 °F 75.2 °F 84% 29.77 in 5.0 mi SSW 3.5 mph - N/A   Mostly Cloudy
5:30 AM 80.6 °F 85.4 °F 73.4 °F 79% 29.77 in 5.0 mi SSW 6.9 mph - N/A   Mostly Cloudy
6:00 AM 80.6 °F 85.4 °F 73.4 °F 79% 29.77 in 5.0 mi South 6.9 mph - N/A   Mostly Cloudy
6:30 AM 82.4 °F 88.2 °F 73.4 °F 74% 29.80 in 3.7 mi SW 6.9 mph - N/A Rain Light Rain Showers
7:00 AM 78.8 °F - 73.4 °F 83% 29.80 in 3.7 mi South 9.2 mph - N/A Rain Light Rain Showers
7:30 AM 78.8 °F - 73.4 °F 83% 29.83 in 3.7 mi South 3.5 mph - N/A Rain Light Rain
8:00 AM 80.6 °F 86.2 °F 75.2 °F 84% 29.83 in 3.7 mi South 3.5 mph - N/A Rain Light Rain
8:30 AM 80.6 °F 86.2 °F 75.2 °F 84% 29.83 in 4.3 mi South 4.6 mph - N/A Rain Light Rain
9:00 AM 82.4 °F 89.5 °F 75.2 °F 79% 29.83 in 4.3 mi South 4.6 mph - N/A   Mostly Cloudy
9:30 AM 82.4 °F 89.5 °F 75.2 °F 79% 29.83 in 5.0 mi South 6.9 mph - N/A   Mostly Cloudy
10:00 AM 82.4 °F 89.5 °F 75.2 °F 79% 29.83 in 5.6 mi South 5.8 mph - N/A   Mostly Cloudy
10:30 AM 84.2 °F 90.9 °F 73.4 °F 70% 29.83 in 6.2 mi South 6.9 mph - N/A   Mostly Cloudy
11:00 AM 84.2 °F 90.9 °F 73.4 °F 70% 29.83 in 6.2 mi South 6.9 mph - N/A   Mostly Cloudy
11:30 AM 84.2 °F 92.3 °F 75.2 °F 74% 29.83 in 6.2 mi South 6.9 mph - N/A   Mostly Cloudy
12:00 PM 84.2 °F 92.3 °F 75.2 °F 74% 29.83 in 6.2 mi SSW 9.2 mph - N/A   Mostly Cloudy
12:30 PM 84.2 °F 94.1 °F 77.0 °F 79% 29.83 in 6.2 mi SSW 9.2 mph - N/A   Mostly Cloudy
1:00 PM 84.2 °F 94.1 °F 77.0 °F 79% 29.80 in 6.2 mi South 9.2 mph - N/A   Mostly Cloudy
1:30 PM 84.2 °F 94.1 °F 77.0 °F 79% 29.77 in 6.2 mi South 6.9 mph - N/A   Mostly Cloudy
2:00 PM 84.2 °F 92.3 °F 75.2 °F 74% 29.77 in 6.2 mi South 6.9 mph - N/A   Mostly Cloudy
2:30 PM 84.2 °F 94.1 °F 77.0 °F 79% 29.74 in 6.2 mi South 6.9 mph - N/A   Mostly Cloudy
3:00 PM 84.2 °F 92.3 °F 75.2 °F 74% 29.74 in 6.2 mi South 6.9 mph - N/A   Mostly Cloudy
3:30 PM 84.2 °F 92.3 °F 75.2 °F 74% 29.74 in 6.2 mi SW 9.2 mph - N/A   Mostly Cloudy
4:00 PM 84.2 °F 92.3 °F 75.2 °F 74% 29.71 in 6.2 mi SSW 9.2 mph - N/A   Mostly Cloudy
4:30 PM 84.2 °F 92.3 °F 75.2 °F 74% 29.74 in 6.2 mi SW 9.2 mph - N/A   Mostly Cloudy
5:00 PM 84.2 °F 92.3 °F 75.2 °F 74% 29.71 in 6.2 mi SW 9.2 mph - N/A   Mostly Cloudy
5:30 PM 84.2 °F 90.9 °F 73.4 °F 70% 29.74 in 6.2 mi SSW 6.9 mph - N/A   Mostly Cloudy
6:00 PM 84.2 °F 92.3 °F 75.2 °F 74% 29.74 in 6.2 mi SSW 4.6 mph - N/A   Mostly Cloudy
6:30 PM 84.2 °F 92.3 °F 75.2 °F 74% 29.74 in 6.2 mi South 6.9 mph - N/A   Mostly Cloudy
7:00 PM 84.2 °F 90.9 °F 73.4 °F 70% 29.77 in 6.2 mi South 4.6 mph - N/A   Mostly Cloudy
7:30 PM 82.4 °F 88.2 °F 73.4 °F 74% 29.77 in 6.2 mi SSW 3.5 mph - N/A   Mostly Cloudy
8:00 PM 82.4 °F 88.2 °F 73.4 °F 74% 29.77 in 6.2 mi SSW 4.6 mph - N/A   Mostly Cloudy
8:30 PM 82.4 °F 88.2 °F 73.4 °F 74% 29.77 in 6.2 mi Calm Calm - N/A   Mostly Cloudy
9:00 PM 82.4 °F 88.2 °F 73.4 °F 74% 29.80 in 6.2 mi Calm Calm - N/A   Mostly Cloudy
10:00 PM 82.4 °F 88.2 °F 73.4 °F 74% 29.80 in 6.2 mi South 4.6 mph - N/A   Mostly Cloudy
10:30 PM 84.2 °F 90.9 °F 73.4 °F 70% 29.80 in 6.2 mi South 6.9 mph - N/A   Mostly Cloudy
11:00 PM 84.2 °F 90.9 °F 73.4 °F 70% 29.80 in 6.2 mi South 4.6 mph - N/A   Mostly Cloudy
11:30 PM 84.2 °F 90.9 °F 73.4 °F 70% 29.80 in 6.2 mi SSE 4.6 mph - N/A   Mostly Cloudy